User: anonymous   Login
Location: Pasadena, ca
(34.1243°N, 118.1037°W)
Time: 13:44:27
(UTC-08:00)
Language:

Envisat - Orbit

View from above orbital plane
View from above orbital plane
View from above satellite
View from above satellite

Ground track
Ground track

The orbit data is extracted from the following two-line orbital elements,

1 27386U 02009A   18056.47053522 -.00000015  00000-0  87470-5 0  9993
2 27386  98.1990  95.7140 0001345  92.1455 267.9888 14.37915979837471
Epoch (UTC): 25 February 2018 11:17:34
Eccentricity: 0.0001345
inclination: 98.1990°
perigee height: 764 km
apogee height: 766 km
right ascension of ascending node: 95.7140°
argument of perigee: 92.1455°
revolutions per day: 14.37915979
mean anomaly at epoch: 267.9888°
orbit number at epoch: 83747

The dashed part of the orbit path shows where the satellite is in the earth's shadow,  

DLR